CAPE
78 4 105 142 306 409 541 554 441 336 233 262 279 303 217 106 30 2 3 6 11 10 29 14 17 18 16 6 13 18 9 5 15 16 12 9 28 5 12 6 4 7 2
97 72 127 173 291 377 405 407 349 289 305 311 316 206 75 1 0 2 5 6 10 14 12 8 10 13 23 25 20 17 7 24 15 7 4 17 8 10 21 17 13 13 48
46 137 91 161 271 330 353 313 306 309 296 280 168 67 29 0 4 4 5 7 15 20 13 10 23 24 23 14 10 14 11 6 6 0 16 3 8 20 18 20 25 11 25
36 111 125 148 284 189 141 140 220 270 264 185 106 20 0 3 4 4 5 8 16 20 16 11 16 11 14 12 9 10 8 6 1 3 0 0 12 9 10 18 21 13 21
45 114 333 206 346 274 329 350 318 299 204 80 17 0 1 5 5 5 3 12 20 21 25 20 8 14 12 6 7 9 3 2 2 2 0 2 5 44 44 17 34 36 28
154 132 323 181 353 329 353 405 315 210 112 24 0 0 1 6 1 6 7 18 23 20 12 2 4 3 6 2 3 1 0 0 0 0 0 9 8 21 30 24 17 8 4
223 247 382 232 252 261 331 356 239 81 27 0 0 3 4 3 3 3 2 19 11 14 14 5 2 5 2 3 8 6 5 1 0 0 1 32 6 10 9 6 2 10 12
317 449 468 308 237 180 249 224 86 29 0 0 1 2 3 2 2 0 3 5 8 15 11 5 1 0 5 5 1 1 1 3 0 5 1 14 10 7 7 9 6 15 19
456 491 546 457 367 268 196 102 46 34 0 0 1 2 4 2 1 1 3 6 5 5 9 5 4 1 6 4 0 0 1 0 0 5 1 1 9 9 11 7 6 7 17
527 511 517 562 490 383 223 89 63 24 1 0 0 0 2 2 1 3 6 6 0 5 3 5 7 10 9 0 0 0 1 0 0 0 0 4 31 10 11 4 3 14 4
584 604 609 563 518 376 221 177 88 32 2 1 0 1 3 6 6 7 15 6 0 0 1 2 3 5 4 4 2 0 0 0 1 0 10 22 11 16 9 4 3 12 5
516 595 578 541 404 383 277 304 200 68 11 4 1 1 6 8 6 3 15 5 0 0 2 0 0 1 3 2 0 0 0 0 0 2 2 3 11 4 5 4 5 12 3
659 680 637 415 387 347 357 298 229 36 6 1 0 0 3 6 8 8 15 7 24 3 7 5 3 1 1 0 0 0 0 0 1 0 3 4 5 9 5 1 1 6 4
774 679 674 477 418 243 268 219 160 10 2 1 0 0 1 6 10 7 7 15 22 6 4 0 0 0 0 0 0 0 0 0 2 2 2 5 5 15 6 7 5 2 6
925 904 742 533 430 184 183 134 109 27 0 2 2 0 0 1 3 4 3 2 2 0 0 0 0 0 0 0 0 0 0 1 0 4 1 4 5 8 3 9 2 7 3
1077 1007 734 622 455 256 120 91 60 16 0 0 3 1 0 0 1 0 1 0 0 0 0 0 0 0 0 0 0 0 0 0 4 2 3 6 5 4 7 5 4 5 7
1037 1207 823 748 491 295 155 110 48 19 0 0 3 2 0 0 0 0 0 0 0 0 0 0 0 0 0 0 0 0 0 0 1 6 2 0 0 0 3 5 2 5 5
1246 1162 991 774 456 325 157 148 66 59 6 2 2 0 0 0 0 0 0 0 0 0 0 0 0 0 0 0 0 0 0 0 0 0 1 1 0 0 1 1 6 5 6
1185 1143 996 702 508 328 189 120 94 97 26 7 2 1 0 0 0 0 0 0 0 0 0 0 0 0 0 0 0 0 1 0 0 0 0 0 0 0 0 0 1 2 4
916 1066 980 784 735 437 250 89 85 65 64 12 4 1 0 0 0 0 0 0 0 0 0 0 0 0 0 0 0 0 0 0 0 0 0 0 0 0 0 0 0 0 0
182 876 1016 918 815 565 366 196 91 59 44 10 12 3 2 0 0 0 0 0 0 0 0 0 0 0 0 0 0 0 0 0 0 0 0 0 0 0 0 0 0 0 0
0 4 550 949 683 683 440 408 160 91 62 12 21 24 4 0 0 0 0 0 0 0 0 0 0 0 0 0 0 0 0 0 0 0 0 0 0 0 0 0 0 0 0
0 1 7 2 750 684 470 261 49 53 62 10 27 2 2 1 0 0 0 0 0 0 0 0 0 0 0 0 0 0 0 0 0 0 0 0 0 0 0 0 0 0 0
0 0 5 3 402 531 449 211 18 1 38 29 36 39 8 2 0 0 0 0 0 0 0 0 0 0 0 0 0 0 0 0 0 0 0 0 0 0 0 0 0 0 0
0 0 2 8 122 504 476 344 67 3 39 113 123 107 54 5 2 0 0 0 0 0 0 0 0 0 0 0 0 0 0 0 0 0 0 0 0 0 0 0 0 0 0
0 0 0 6 2 389 483 340 183 43 99 53 27 158 178 52 25 14 0 0 0 0 0 0 0 0 0 0 0 0 0 0 0 0 0 0 0 0 0 0 0 0 0
CIN
-161 -250 -115 -73 -18 -18 -19 -21 -35 -34 -24 -8 -4 -0 -1 -7 -100 -79 -3 -4 -3 -1 -137 -4 -3 -1 -1 -1 -0 -0 -1 -2 -0 -0 -0 -0 -0 -1 -1 -1 -0 -1 -0
-164 -164 -114 -62 -23 -19 -21 -25 -29 -24 -5 -1 -0 -2 -48 -9 0 -1 -2 -2 -2 -1 -0 -0 -1 -1 -0 -0 -2 -2 -3 -0 -5 -0 -0 -1 -1 -1 -1 -1 -1 -0 -0
-213 -104 -100 -111 -24 -26 -22 -25 -16 -7 -4 -1 -9 -50 -101 0 0 -0 -0 -2 -3 -1 -1 -1 -0 -0 -0 -1 -4 -3 -3 -4 -1 -0 -1 -1 -2 -1 -1 -1 -1 -1 -0
-248 -105 -69 -72 -25 -44 -87 -77 -22 -3 -0 -0 -32 -111 0 0 0 -0 -1 -5 -2 -0 -0 -0 -0 -1 -1 -2 -2 -0 -1 -2 -1 -2 -0 -1 -1 -0 -1 -0 -1 -1 -1
-247 -120 -26 -39 -11 -25 -17 -11 -7 -0 -7 -15 -49 0 -0 -0 -0 -1 -4 -4 -3 -1 -1 -0 -0 -1 -3 -4 -3 -1 -0 -1 -2 -1 0 -1 -1 -0 -0 -1 -1 -0 -0
-192 -182 -64 -76 -8 -16 -8 -1 -6 -4 -17 -42 -1 0 -0 0 -0 -3 -2 -2 -1 -0 -0 -2 -0 -0 -0 -1 -0 -0 0 0 0 0 0 -1 -2 -1 -0 -0 -0 -2 -5
-205 -133 -77 -89 -85 -61 -11 -1 -2 -25 -63 0 0 -1 -0 -0 -1 -4 -1 -3 -4 -2 -0 -1 -2 0 -0 -0 -0 -0 -1 -1 0 -1 -0 -0 -1 -1 -1 -0 -2 -2 -1
-195 -99 -52 -80 -97 -110 -40 -14 -36 -64 0 0 -1 -1 -1 -1 -3 0 -4 -6 -8 -5 -3 -1 -3 -1 -0 -0 -0 -1 -1 -1 0 -0 -1 -1 -2 -0 -1 -0 -1 -1 -1
-167 -113 -74 -39 -49 -79 -71 -45 -62 -95 0 0 -2 -1 -2 -3 -3 -3 -5 -4 -6 -2 -2 -1 -1 -1 -0 -0 0 0 -5 -0 0 -1 -0 -1 -1 -1 -0 -0 -0 -1 -0
-142 -107 -94 -52 -45 -30 -28 -42 -64 -128 -7 0 -0 -3 -3 -3 -4 -4 -5 -8 0 -0 -0 -0 -0 -0 -0 0 -0 0 -4 0 -0 -0 0 -1 -0 -1 -0 -0 -0 -0 -0
-152 -92 -64 -63 -53 -24 -37 -12 -33 -121 -4 -2 -0 -1 -2 -0 -0 -1 -1 -4 0 0 -0 -0 -1 -1 -3 -3 -2 0 0 0 -0 -0 -1 -1 -1 -1 -0 -1 -1 -1 -0
-186 -110 -69 -50 -74 -38 -23 -4 -14 -58 -103 -0 -0 -0 -0 -0 -0 -0 -1 -4 0 0 -0 -0 0 -2 -1 -1 -1 0 0 -0 0 -4 -0 -2 -2 -1 -1 -0 -0 -0 -1
-160 -104 -80 -81 -58 -31 -21 -20 -28 -106 -29 -0 0 0 -0 -0 -0 -0 -0 -1 -0 -0 -0 -1 -0 -1 -0 -0 0 -0 -0 0 -1 -0 -1 -2 -0 -0 -0 -0 -0 -2 -0
-124 -117 -81 -70 -56 -81 -38 -52 -69 -170 0 -0 0 0 0 -0 0 0 -0 -0 -0 -0 -0 -0 0 0 0 0 0 0 -0 0 -1 -0 -1 -6 -2 -2 -1 -0 -0 -0 -0
-51 -50 -74 -67 -76 -133 -82 -110 -98 -137 -2 0 0 0 0 0 -0 -0 -0 -0 -0 0 0 0 0 0 0 0 0 0 0 -0 0 -1 -1 -1 -4 -1 -2 -0 -1 -1 -0
-32 -25 -52 -51 -44 -109 -136 -114 -138 -160 -5 0 0 -0 0 0 -0 -0 -0 0 0 0 0 0 0 0 0 0 0 0 0 0 -0 -1 -1 -1 -3 -3 -4 -0 -1 -1 -1
-107 -52 -78 -37 -43 -75 -128 -122 -145 -183 0 0 0 0 0 0 0 0 0 0 0 0 0 0 0 0 0 0 0 0 0 0 -0 -0 -1 0 -0 -1 -1 -0 -0 -0 -0
-50 -53 -60 -55 -81 -98 -104 -119 -129 -129 -177 -28 0 0 0 0 0 0 0 0 0 0 0 0 0 0 0 0 0 -0 0 0 0 0 -0 -0 0 0 -1 -1 -0 -0 -0
-29 -28 -32 -53 -79 -91 -89 -103 -90 -97 -122 -98 0 0 0 0 0 0 0 0 0 0 0 0 0 0 0 0 0 0 -0 0 0 0 0 0 0 0 0 0 -0 -0 -1
-5 -21 -40 -39 -38 -61 -71 -68 -61 -86 -89 -131 0 0 0 0 0 0 0 0 0 0 0 0 0 0 0 0 0 0 0 0 0 0 0 0 0 0 0 0 0 0 0
-160 -12 -42 -37 -31 -33 -65 -105 -100 -115 -110 -149 -139 0 0 0 0 0 0 0 0 0 0 0 0 0 0 0 0 0 0 0 0 0 0 0 0 0 0 0 0 0 0
0 0 0 -26 -42 -45 -61 -74 -94 -89 -96 -109 -109 -125 0 0 0 0 0 0 0 0 0 0 0 0 0 0 0 0 0 0 0 0 0 0 0 0 0 0 0 0 0
0 0 0 0 -4 -16 -33 -36 -56 -34 -27 -0 -113 -2 0 0 0 0 0 0 0 0 0 0 0 0 0 0 0 0 0 0 0 0 0 0 0 0 0 0 0 0 0
0 0 0 0 -13 -7 -17 -25 -67 -1 -47 -75 -71 -43 -71 0 0 0 0 0 0 0 0 0 0 0 0 0 0 0 0 0 0 0 0 0 0 0 0 0 0 0 0
0 0 0 0 -28 -3 -5 -11 -48 -3 -33 -14 -6 -6 -43 -66 -6 0 0 0 0 0 0 0 0 0 0 0 0 0 0 0 0 0 0 0 0 0 0 0 0 0 0
0 0 0 0 0 -10 -3 -3 -16 -37 -3 -7 -11 -0 -22 -72 -96 -74 0 0 0 0 0 0 0 0 0 0 0 0 0 0 0 0 0 0 0 0 0 0 0 0 0
Wind_Speed
17 20 18 16 16 13 11 11 12 13 16 16 17 17 19 20 20 19 20 24 25 26 27 29 29 28 29 30 30 28 28 29 32 32 32 33 32 31 32 33 35 35 35
19 19 18 16 16 15 13 12 12 13 16 15 16 14 16 17 17 20 21 23 24 26 27 28 29 29 29 30 30 28 28 29 30 31 31 32 31 31 31 33 33 35 36
19 17 18 17 16 15 14 13 12 13 15 16 16 13 14 15 19 20 20 22 24 26 27 28 29 29 28 29 29 27 26 26 28 30 29 31 30 31 32 33 34 35 36
22 17 16 17 15 13 12 12 11 10 11 12 14 13 13 16 18 19 20 22 24 26 27 27 28 28 27 27 28 27 26 25 28 27 29 30 29 31 31 32 34 35 36
21 19 14 15 15 11 9 10 11 8 7 9 9 11 12 14 16 19 21 22 24 25 26 27 28 27 26 26 27 26 26 25 26 28 28 29 29 28 30 32 32 33 34
19 19 16 17 15 11 8 7 9 9 7 6 8 9 12 14 16 17 18 21 23 24 25 26 27 26 26 25 27 26 25 25 26 26 28 28 28 27 27 29 29 31 28
18 18 19 17 15 13 10 7 7 9 8 6 6 7 10 13 14 15 17 18 21 22 24 26 26 26 25 26 26 24 20 23 24 25 26 27 28 26 26 25 26 27 26
23 15 21 17 15 12 11 9 8 9 9 7 6 8 9 10 12 14 16 17 18 21 23 24 25 26 24 24 25 24 20 22 23 24 26 25 25 25 26 26 26 27 29
19 16 10 17 13 10 10 11 11 9 8 8 9 9 9 9 10 12 13 16 17 20 22 23 24 25 24 24 23 23 19 18 20 22 24 24 26 25 23 23 22 25 24
18 13 11 10 16 14 11 10 10 9 8 8 8 8 10 10 10 10 13 13 16 18 21 23 24 25 25 23 24 23 19 17 17 19 21 23 24 23 21 21 21 22 22
12 11 6 8 8 11 12 12 9 7 7 6 7 7 9 9 10 11 10 12 14 17 20 22 23 24 25 24 22 22 21 17 16 16 18 19 20 21 19 19 20 20 20
8 10 8 7 4 6 11 11 9 6 7 5 6 7 6 7 7 8 10 10 12 15 17 20 22 23 23 23 22 21 21 19 15 15 15 17 18 20 19 18 17 17 18
9 8 8 8 7 5 4 6 4 1 1 2 4 4 4 5 6 7 8 9 8 11 14 18 19 20 21 21 21 20 21 19 16 13 14 14 17 18 18 16 16 16 16
8 8 8 7 8 8 5 4 2 1 1 1 2 3 3 4 4 5 5 5 6 5 11 14 17 19 20 20 21 21 20 20 16 13 13 14 14 16 17 15 15 14 14
6 7 8 9 9 8 10 8 5 4 2 2 2 2 2 3 2 2 3 3 3 3 6 10 14 17 18 18 20 20 20 18 17 14 12 12 14 15 15 14 13 13 13
8 10 9 10 11 8 7 7 9 9 5 3 5 2 2 4 3 1 1 2 1 1 3 6 11 14 15 17 17 18 19 19 17 14 12 11 10 11 13 13 12 12 12
8 9 11 12 13 11 11 9 7 8 8 10 8 3 0 2 1 1 1 0 1 3 3 4 5 8 12 14 15 16 17 17 17 16 13 11 10 11 11 11 11 11 11
11 10 11 11 12 13 13 13 12 9 8 10 7 6 5 2 2 1 2 2 2 3 4 7 6 5 7 10 12 13 14 15 15 15 13 11 10 10 10 10 10 10 10
24 19 16 16 13 12 9 17 15 15 14 14 12 9 7 5 2 2 3 4 3 4 9 10 8 5 4 7 8 10 11 12 12 12 12 11 9 10 10 9 9 9 8
24 24 19 19 15 14 14 12 17 19 20 19 19 16 8 8 5 3 3 4 5 6 8 9 7 7 8 7 7 8 8 8 9 10 10 10 9 7 8 10 10 8 9
28 24 24 21 18 15 15 14 18 17 21 24 23 20 15 11 7 6 4 5 6 6 6 7 7 6 8 7 8 10 10 7 5 5 7 8 9 7 5 8 11 12 10
28 28 31 26 22 17 16 16 18 19 20 19 27 25 18 12 9 8 7 7 7 7 8 7 7 9 10 5 10 12 14 12 3 1 3 4 7 8 6 2 8 10 12
31 32 35 36 27 23 24 23 23 21 21 19 23 19 17 16 13 11 10 9 8 8 7 6 7 7 9 7 9 13 14 15 17 13 4 0 2 4 6 6 3 3 8
35 35 35 37 32 25 23 22 22 24 25 24 26 23 20 18 17 14 12 14 12 10 11 11 8 8 8 10 10 12 15 16 17 17 15 14 5 1 4 4 4 5 4
36 37 36 36 36 26 25 23 22 23 25 25 22 19 21 20 18 16 14 13 15 14 15 14 13 12 11 12 11 14 16 18 17 15 23 18 15 15 6 4 3 3 4
36 36 37 35 31 32 27 27 25 25 26 25 26 26 26 22 24 19 16 15 13 13 13 13 13 13 12 13 11 11 12 16 15 18 18 20 22 20 21 17 11 7 6
Wind_Direction
115 114 107 99 93 87 86 88 89 87 84 79 75 74 75 74 70 59 57 64 68 72 74 74 73 68 70 70 66 59 56 57 66 66 62 66 61 58 60 64 71 69 69
115 112 109 102 98 94 91 90 90 89 86 81 77 73 74 69 61 64 63 63 65 74 76 75 78 78 72 71 67 59 58 62 65 65 65 64 61 60 59 64 65 72 73
114 112 112 106 101 98 96 94 91 89 87 83 80 75 72 65 67 65 61 61 66 73 77 79 78 76 69 67 64 57 57 57 61 67 61 66 62 62 65 69 70 72 73
117 115 113 109 103 99 99 97 95 91 85 82 81 77 71 69 70 64 65 66 73 77 79 81 81 77 70 68 65 61 63 58 67 61 64 66 63 68 67 71 77 76 82
119 117 114 111 106 101 101 100 97 93 88 84 77 74 66 67 67 72 72 69 72 78 81 84 83 79 71 65 66 63 64 62 64 67 64 69 72 65 70 77 66 69 77
118 119 119 116 108 103 103 103 98 94 87 85 76 67 69 68 70 70 66 70 74 80 81 86 85 81 73 67 73 66 63 69 70 64 68 65 69 67 60 69 65 65 57
115 117 120 118 113 109 104 103 101 97 88 80 68 60 63 71 69 64 64 68 73 74 83 86 89 85 76 72 72 66 52 65 65 65 69 69 73 71 64 58 61 62 58
121 115 119 118 114 111 108 105 103 96 90 79 66 65 63 59 63 64 67 66 69 77 85 88 91 89 77 75 72 67 57 62 64 68 75 69 68 65 68 66 64 65 72
122 119 117 117 114 112 111 110 108 100 93 84 76 67 65 57 53 60 62 71 71 79 87 89 91 92 82 76 73 65 56 51 58 64 70 69 78 72 63 63 53 62 59
126 127 123 120 118 114 112 115 110 106 98 84 76 68 68 62 55 53 67 67 73 78 86 90 91 91 87 77 76 71 57 48 50 56 63 72 69 70 63 56 54 60 58
129 134 159 129 122 115 115 115 110 107 102 86 71 68 72 59 62 64 59 73 73 81 86 90 89 91 91 83 75 72 73 52 48 45 58 62 63 63 60 55 59 61 56
149 147 156 153 177 129 118 120 112 108 101 84 71 77 40 54 53 54 67 70 77 78 80 87 88 90 94 92 81 78 74 66 46 44 46 53 63 68 64 60 54 47 52
157 155 166 156 215 174 143 122 116 138 100 55 62 54 46 49 54 46 60 74 68 72 78 89 89 94 93 95 93 82 81 75 56 35 48 46 58 68 65 56 53 48 47
179 179 176 189 184 224 230 230 227 231 170 43 1 46 48 38 52 40 50 64 67 49 81 85 88 89 90 95 93 88 83 82 65 41 41 53 44 65 65 55 50 50 46
212 193 194 202 197 218 239 241 239 254 240 281 334 356 350 337 3 19 35 46 25 37 68 72 82 87 87 90 95 93 92 83 74 55 47 39 59 63 61 53 43 41 36
234 242 230 218 220 213 217 232 246 250 256 258 286 332 56 316 316 346 353 5 341 26 16 53 78 87 83 92 90 95 98 96 91 67 40 40 4 19 54 58 48 42 39
210 226 234 226 229 230 239 237 238 245 249 253 267 286 1 312 311 306 296 242 273 284 305 332 18 50 71 82 89 90 95 100 102 91 62 21 31 4 26 46 43 24 23
259 240 236 226 227 235 236 246 248 245 244 255 255 267 268 273 284 257 223 217 252 273 284 295 322 31 50 64 75 83 90 98 103 110 96 66 23 8 7 19 34 19 16
258 260 252 249 234 233 223 245 248 251 253 256 258 260 261 263 244 229 214 235 228 262 275 285 300 319 5 22 38 55 68 91 96 105 110 103 64 2 354 2 10 11 27
262 258 257 258 250 242 248 246 244 252 255 255 256 259 256 259 254 224 221 215 227 260 276 285 295 295 304 332 359 12 24 48 79 109 119 123 110 56 3 348 350 1 350
267 262 257 254 254 244 242 246 243 246 252 252 254 258 259 258 252 251 232 206 231 251 268 278 289 290 299 320 341 340 345 6 48 89 115 133 142 129 62 349 338 333 341
280 277 262 256 250 237 238 248 253 250 252 257 252 254 258 252 247 250 237 214 214 252 267 269 272 284 291 299 315 326 326 338 1 114 124 138 155 158 153 108 338 328 326
280 278 270 265 254 250 254 257 257 255 258 257 252 254 252 254 249 247 244 230 226 242 253 254 258 260 280 284 298 311 320 324 332 346 8 84 165 171 179 181 181 320 321
280 279 275 268 257 252 252 252 249 248 252 253 255 254 254 250 249 246 246 248 245 249 260 265 263 260 271 281 287 292 305 315 322 332 336 338 351 280 208 209 205 203 224
282 279 276 271 262 254 252 249 247 247 250 252 250 249 250 251 245 239 239 244 254 255 260 263 265 264 266 277 279 294 292 300 309 319 314 328 333 325 331 310 250 259 234
281 279 275 272 270 256 254 254 250 250 249 251 251 252 250 251 249 242 236 242 238 247 255 261 262 261 261 270 274 282 293 301 300 306 308 315 315 320 314 318 320 309 294